Location: Banios
(43.0451°N, 0.2335°E)
Time: 09:47:24
(UTC+00:00)

A-11 Canister half - Pass Details

Date: 13 May 2021
Orbit: 1527 x 1681 km, 47.3° (Epoch: 22 June)

Event Time Altitude Azimuth Distance (km) Brightness Sun altitude
Rises 15:20:13 0° 296° (WNW) 4,856 12.2 40.6°
Reaches altitude 10° 15:23:24 10° 292° (WNW) 3,886 12.0 40.1°
Maximum altitude 15:32:57 53° 219° (SW) 1,983 10.8 38.4°
Drops below altitude 10° 15:42:38 10° 147° (SSE) 3,935 11.0 36.6°
Sets 15:45:53 0° 142° (SE) 4,920 11.4 36.0°
